Location: Bühlhof
(48.7849°N, 8.6361°E)
Time: 00:44:16
(UTC+00:00)

SL-16 R/B - Pass Details

Date: 19 January 2026
Orbit: 985 x 1007 km, 99.8° (Epoch: 17 February)

Event Time Altitude Azimuth Distance (km) Brightness Sun altitude
Rises 17:22:33 0° 11° (N) 3,706 5.3 -12.9°
Reaches altitude 10° 17:25:10 10° 4° (N) 2,753 4.7 -13.3°
Maximum altitude 17:30:47 39° 299° (WNW) 1,453 3.8 -14.2°
Drops below altitude 10° 17:36:23 10° 233° (SW) 2,741 5.9 -15.1°
Sets 17:39:00 0° 226° (SW) 3,688 6.6 -15.5°
